User: anonymous   Login
Location: Ballingbuur
(53.0000°N, 5.7667°E)
Time: 12:35:27
(UTC+00:00)
Language:

FALCON 9 DEB - Orbit

View from above orbital plane
View from above orbital plane
View from above satellite
View from above satellite

Ground track
Ground track

The orbit data is extracted from the following two-line orbital elements,

1 46085U 20055BL  21061.44476786  .00016611  00000-0  19511-3 0  9996
2 46085  53.0134   2.2532 0008832 248.5090 111.4981 15.61597291 36925
Epoch (UTC): 02 March 2021 10:40:27
Eccentricity: 0.0008832
inclination: 53.0134°
perigee height: 377 km
apogee height: 389 km
right ascension of ascending node: 2.2532°
argument of perigee: 248.5090°
revolutions per day: 15.61597291
mean anomaly at epoch: 111.4981°
orbit number at epoch: 3692

The dashed part of the orbit path shows where the satellite is in the earth's shadow,  

DLR